This is the latest recevied weather packets stored in our database for station/object KB1JLI. If no packets are shown the sender has not sent any weather packets the latest 10 day(s).
| Time | Temp. | Humidity | Pressure | Rain* | Wind** | Luminosity | Snow |
|---|---|---|---|---|---|---|---|
| 1777824350 | 8.89° C | 71% | 1005.9 hPa | 0 mm | - | 76 W/m² | - |
| 1777824045 | 8.89° C | 71% | 1006 hPa | 0 mm | - | 129 W/m² | - |
| 1777823742 | 8.89° C | 72% | 1006 hPa | 0 mm | - | 156 W/m² | - |
| 1777822833 | 8.33° C | 76% | 1006 hPa | 0 mm | - | 231 W/m² | - |
| 1777821624 | 8.33° C | 75% | 1005.9 hPa | 0 mm | - | 98 W/m² | - |
| 1777820411 | 8.89° C | 75% | 1005.9 hPa | 0 mm | - | 97 W/m² | - |
| 1777815564 | 7.22° C | 81% | 1006.3 hPa | 0 mm | - | 65 W/m² | - |
| 1777811026 | 6.67° C | 85% | 1006.7 hPa | 0 mm | - | 189 W/m² | - |
| 1777810723 | 6.67° C | 86% | 1006.5 hPa | 0 mm | - | 183 W/m² | - |
| 1777810115 | 6.11° C | 87% | 1006.8 hPa | 0 mm | - | 100 W/m² | - |
| 1777809208 | 6.11° C | 87% | 1006.9 hPa | 0 mm | - | 36 W/m² | - |
| 1777808906 | 6.11° C | 87% | 1006.9 hPa | 0 mm | - | 29 W/m² | - |
| 1777808299 | 6.11° C | 87% | 1006.9 hPa | 0 mm | - | 9 W/m² | - |
| 1777807093 | 6.11° C | 86% | 1007 hPa | 0 mm | - | 9 W/m² | - |
| 1777806486 | 6.11° C | 86% | 1006.9 hPa | 0 mm | - | 15 W/m² | - |
| 1777805577 | 6.11° C | 86% | 1007 hPa | 0 mm | - | 22 W/m² | - |
| 1777804367 | 5.56° C | 87% | 1006.9 hPa | 0 mm | - | 17 W/m² | - |
| 1777804064 | 5.56° C | 87% | 1007.1 hPa | 0 mm | - | 20 W/m² | - |
| 1777803761 | 5.56° C | 87% | 1007 hPa | 0 mm | - | 16 W/m² | - |
| 1777803154 | 5.56° C | 87% | 1007.3 hPa | 0 mm | - | 13 W/m² | - |
| 1777802851 | 5.56° C | 87% | 1007.1 hPa | 0 mm | - | 9 W/m² | - |
| 1777802549 | 5.56° C | 87% | 1007 hPa | 0 mm | - | 8 W/m² | - |
| 1777802246 | 5.56° C | 87% | 1007.3 hPa | 0 mm | - | 5 W/m² | - |
| 1777801945 | 5.56° C | 87% | 1006.7 hPa | 0 mm | - | 3 W/m² | - |
| 1777801641 | 6.11° C | 87% | 1006.9 hPa | 0 mm | - | 3 W/m² | - |
* Rain latest hour (hover to see other rain measurements)
** Current wind speed in m/s (hover to see current wind gust speed)